GW1975 Weather Reports


Display with metric or nautical units.
time (UTC)temp
F
wind
direction
speed
MPH
gust
MPH
rain 1hr
in
rain 24hr
in
rain mn
in
humidity
%
barometer
mb
20260508025735 54 25 0.0 0.0 0.00 0.00 0.00 59 1016.0
20260508025235 55 230 0.0 0.0 0.00 0.00 0.00 57 1016.0
20260508024735 55 230 0.0 0.0 0.00 0.00 0.00 56 1016.0
20260508024235 55 230 0.0 0.0 0.00 0.00 0.00 56 1016.0
20260508023736 56 230 0.0 0.0 0.00 0.00 0.00 55 1016.0
20260508023236 56 129 0.0 0.0 0.00 0.00 0.00 55 1016.0
20260508022735 57 326 0.0 0.0 0.00 0.00 0.00 54 1016.0
20260508022236 57 326 0.0 0.0 0.00 0.00 0.00 53 1016.0
20260508021735 58 326 0.0 0.0 0.00 0.00 0.00 51 1016.0
20260508021235 58 309 0.0 1.0 0.00 0.00 0.00 51 1016.0
20260508020736 58 129 0.0 0.0 0.00 0.00 0.00 50 1016.0
20260508020235 58 143 0.0 1.0 0.00 0.00 0.00 49 1016.0
20260508015736 59 146 0.0 2.0 0.00 0.00 0.00 48 1016.0
20260508015235 59 147 0.0 0.0 0.00 0.00 0.00 47 1015.0
20260508014736 59 142 0.0 0.0 0.00 0.00 0.00 47 1015.0
20260508014238 59 135 0.0 1.0 0.00 0.00 0.00 47 1015.0
20260508013737 59 217 0.0 0.0 0.00 0.00 0.00 47 1015.0
20260508013236 59 129 0.0 0.0 0.00 0.00 0.00 48 1015.0
20260508012735 60 139 1.0 1.0 0.00 0.00 0.00 47 1015.0
20260508012237 60 135 0.0 1.0 0.00 0.00 0.00 46 1015.0
20260508011735 61 117 0.0 1.0 0.00 0.00 0.00 46 1015.0
20260508011236 61 142 0.0 0.0 0.00 0.00 0.00 46 1015.0
20260508010735 62 135 0.0 1.0 0.00 0.00 0.00 44 1015.0
20260508010235 62 219 0.0 0.0 0.00 0.00 0.00 41 1015.0
20260508005736 63 242 0.0 1.0 0.00 0.00 0.00 40 1015.0
20260508005236 64 227 0.0 0.0 0.00 0.00 0.00 38 1015.0
20260508004735 64 246 0.0 1.0 0.00 0.00 0.00 38 1015.0
20260508004237 64 224 0.0 0.0 0.00 0.00 0.00 38 1015.0
20260508003735 64 154 0.0 1.0 0.00 0.00 0.00 37 1015.0
20260508003236 65 157 0.0 2.0 0.00 0.00 0.00 37 1015.0
20260508002736 65 241 0.0 2.0 0.00 0.00 0.00 37 1015.0
20260508002235 65 245 1.0 1.0 0.00 0.00 0.00 36 1015.0
20260508001735 66 225 1.0 1.0 0.00 0.00 0.00 37 1015.0
20260508001236 66 222 0.0 2.0 0.00 0.00 0.00 36 1015.0
20260508000735 66 257 1.0 3.0 0.00 0.00 0.00 35 1015.0
20260508000235 66 233 2.0 2.0 0.00 0.00 0.00 35 1015.0
20260507235735 66 280 1.0 3.0 0.00 0.00 0.00 35 1015.0
20260507235236 66 212 1.0 3.0 0.00 0.00 0.00 35 1015.0
20260507234735 66 229 2.0 4.0 0.00 0.00 0.00 34 1015.0
20260507234235 66 255 3.0 4.0 0.00 0.00 0.00 34 1015.0
20260507233735 67 271 4.0 7.0 0.00 0.00 0.00 34 1015.0
20260507233235 67 280 3.0 6.0 0.00 0.00 0.00 34 1015.0
20260507232735 67 258 0.0 6.0 0.00 0.00 0.00 34 1015.0
20260507232236 67 264 2.0 4.0 0.00 0.00 0.00 33 1015.0
20260507231735 67 195 2.0 5.0 0.00 0.00 0.00 33 1015.0
20260507231235 67 248 3.0 5.0 0.00 0.00 0.00 33 1015.0
20260507230736 68 261 3.0 4.0 0.00 0.00 0.00 34 1015.0
20260507230235 67 249 3.0 5.0 0.00 0.00 0.00 33 1015.0
20260507225735 68 272 5.0 5.0 0.00 0.00 0.00 33 1015.0
20260507225236 68 251 1.0 5.0 0.00 0.00 0.00 32 1015.0
20260507224736 68 324 3.0 5.0 0.00 0.00 0.00 32 1015.0
20260507224235 68 261 1.0 3.0 0.00 0.00 0.00 32 1016.0
20260507223735 68 230 1.0 4.0 0.00 0.00 0.00 34 1015.0
20260507223236 67 243 3.0 5.0 0.00 0.00 0.00 34 1016.0
20260507222736 67 218 0.0 4.0 0.00 0.00 0.00 33 1016.0
20260507222236 68 225 4.0 7.0 0.00 0.00 0.00 32 1016.0
20260507221735 67 241 3.0 4.0 0.00 0.00 0.00 33 1016.0
20260507221236 67 261 2.0 4.0 0.00 0.00 0.00 32 1016.0
20260507220735 67 235 1.0 4.0 0.00 0.00 0.00 33 1016.0
20260507220236 66 219 2.0 4.0 0.00 0.00 0.00 34 1016.0
20260507215735 66 261 4.0 5.0 0.00 0.00 0.00 33 1016.0
20260507215235 66 265 2.0 4.0 0.00 0.00 0.00 33 1016.0
20260507214735 68 267 6.0 10.0 0.00 0.00 0.00 32 1016.0
20260507214235 68 247 2.0 5.0 0.00 0.00 0.00 34 1016.0
20260507213742 68 217 3.0 5.0 0.00 0.00 0.00 33 1016.0
20260507213235 67 253 2.0 4.0 0.00 0.00 0.00 34 1016.0
20260507212736 69 226 3.0 6.0 0.00 0.00 0.00 33 1016.0
20260507212236 67 235 1.0 3.0 0.00 0.00 0.00 34 1016.0
20260507211736 66 221 1.0 4.0 0.00 0.00 0.00 34 1016.0
20260507211237 67 246 6.0 7.0 0.00 0.00 0.00 32 1016.0
20260507210736 66 273 2.0 4.0 0.00 0.00 0.00 34 1016.0
20260507210235 66 250 2.0 4.0 0.00 0.00 0.00 33 1016.0
20260507205735 66 254 5.0 6.0 0.00 0.00 0.00 33 1016.0
20260507205236 66 273 4.0 5.0 0.00 0.00 0.00 34 1017.0
20260507204736 67 230 1.0 5.0 0.00 0.00 0.00 33 1017.0
20260507204235 64 265 3.0 4.0 0.00 0.00 0.00 33 1017.0
20260507203736 65 225 1.0 5.0 0.00 0.00 0.00 35 1017.0
20260507203235 66 226 2.0 5.0 0.00 0.00 0.00 33 1017.0
20260507202736 65 267 5.0 6.0 0.00 0.00 0.00 32 1017.0
20260507202236 65 269 5.0 8.0 0.00 0.00 0.00 33 1017.0
20260507201736 65 277 4.0 5.0 0.00 0.00 0.00 34 1017.0
20260507201235 65 295 4.0 4.0 0.00 0.00 0.00 33 1017.0
20260507200736 65 247 2.0 5.0 0.00 0.00 0.00 34 1017.0
20260507200236 65 232 2.0 4.0 0.00 0.00 0.00 34 1017.0
20260507195736 65 288 2.0 4.0 0.00 0.00 0.00 36 1017.0
20260507195237 65 203 1.0 4.0 0.00 0.00 0.00 37 1017.0
20260507194735 64 253 0.0 1.0 0.00 0.00 0.00 35 1017.0
20260507194238 65 167 2.0 2.0 0.00 0.00 0.00 35 1017.0
20260507193737 65 232 2.0 6.0 0.00 0.00 0.00 35 1017.0
20260507193235 65 278 6.0 6.0 0.00 0.00 0.00 33 1017.0
20260507192740 64 235 5.0 7.0 0.00 0.00 0.00 33 1017.0
20260507192236 64 243 0.0 6.0 0.00 0.00 0.00 33 1017.0
20260507191735 64 242 4.0 7.0 0.00 0.00 0.00 34 1018.0
20260507191235 65 252 2.0 6.0 0.00 0.00 0.00 33 1018.0
20260507190737 65 229 4.0 6.0 0.00 0.00 0.00 34 1018.0
20260507190237 64 279 5.0 5.0 0.00 0.00 0.00 34 1018.0
20260507185736 64 229 2.0 5.0 0.00 0.00 0.00 34 1018.0
20260507185235 64 236 4.0 5.0 0.00 0.00 0.00 34 1018.0
20260507184736 64 257 1.0 7.0 0.00 0.00 0.00 34 1018.0
20260507184236 64 271 3.0 5.0 0.00 0.00 0.00 35 1018.0
20260507183736 63 259 7.0 7.0 0.00 0.00 0.00 34 1018.0
20260507183236 62 266 3.0 6.0 0.00 0.00 0.00 38 1018.0
20260507182736 62 169 1.0 3.0 0.00 0.00 0.00 35 1018.0
20260507182235 63 268 5.0 7.0 0.00 0.00 0.00 35 1018.0
20260507181736 63 252 1.0 5.0 0.00 0.00 0.00 34 1018.0
20260507181236 63 256 2.0 4.0 0.00 0.00 0.00 37 1018.0
20260507180736 63 269 5.0 6.0 0.00 0.00 0.00 40 1018.0
20260507180235 62 217 1.0 5.0 0.00 0.00 0.00 35 1018.0
20260507175735 63 248 5.0 6.0 0.00 0.00 0.00 34 1019.0
20260507175236 63 240 2.0 7.0 0.00 0.00 0.00 35 1019.0
20260507174736 62 259 2.0 5.0 0.00 0.00 0.00 37 1019.0
20260507174236 62 229 2.0 5.0 0.00 0.00 0.00 34 1019.0
20260507173736 62 223 2.0 5.0 0.00 0.00 0.00 36 1019.0
20260507173236 62 250 3.0 6.0 0.00 0.00 0.00 36 1019.0
20260507172736 62 338 4.0 5.0 0.00 0.00 0.00 35 1019.0
20260507172236 62 321 2.0 4.0 0.00 0.00 0.00 35 1019.0
20260507171736 62 227 3.0 5.0 0.00 0.00 0.00 37 1019.0
20260507171235 62 273 3.0 5.0 0.00 0.00 0.00 36 1019.0
20260507170735 61 230 1.0 6.0 0.00 0.00 0.00 34 1019.0
20260507170235 61 243 3.0 3.0 0.00 0.00 0.00 35 1019.0
20260507165736 61 254 2.0 5.0 0.00 0.00 0.00 34 1019.0
20260507165235 60 227 2.0 8.0 0.00 0.00 0.00 35 1019.0
20260507164735 60 279 3.0 7.0 0.00 0.00 0.00 35 1020.0
20260507164236 60 242 3.0 3.0 0.00 0.00 0.00 40 1020.0
20260507163736 60 184 0.0 4.0 0.00 0.00 0.00 41 1020.0
20260507163236 60 235 2.0 3.0 0.00 0.00 0.00 40 1020.0
20260507162735 60 229 1.0 5.0 0.00 0.00 0.00 39 1020.0
20260507162236 59 234 2.0 4.0 0.00 0.00 0.00 39 1020.0
20260507161736 60 223 2.0 4.0 0.00 0.00 0.00 37 1020.0
20260507161236 60 242 3.0 6.0 0.00 0.00 0.00 37 1020.0
20260507160735 60 278 3.0 8.0 0.00 0.00 0.00 35 1020.0
20260507160237 60 243 3.0 5.0 0.00 0.00 0.00 38 1020.0
20260507155735 58 223 1.0 3.0 0.00 0.00 0.00 39 1020.0
20260507155238 57 217 0.0 4.0 0.00 0.00 0.00 37 1020.0
20260507154735 59 247 2.0 3.0 0.00 0.00 0.00 40 1020.0
20260507154235 58 243 2.0 3.0 0.00 0.00 0.00 37 1020.0
20260507153736 59 266 2.0 5.0 0.00 0.00 0.00 34 1020.0
20260507153236 60 282 5.0 5.0 0.00 0.00 0.00 44 1020.0
20260507152735 59 287 3.0 5.0 0.00 0.00 0.00 40 1020.0
20260507152235 58 200 1.0 2.0 0.00 0.00 0.00 43 1020.0
20260507151737 57 282 2.0 2.0 0.00 0.00 0.00 45 1020.0
20260507151236 57 239 2.0 4.0 0.00 0.00 0.00 43 1020.0
20260507150735 57 269 2.0 4.0 0.00 0.00 0.00 40 1020.0
20260507150236 57 269 2.0 5.0 0.00 0.00 0.00 42 1021.0
20260507145736 57 256 4.0 7.0 0.00 0.00 0.00 41 1020.0
20260507145236 56 288 2.0 4.0 0.00 0.00 0.00 43 1020.0
20260507144736 58 248 1.0 6.0 0.00 0.00 0.00 43 1021.0
20260507144235 55 218 1.0 2.0 0.00 0.00 0.00 54 1021.0
20260507143735 55 249 0.0 2.0 0.00 0.00 0.00 52 1021.0
20260507143236 56 274 3.0 5.0 0.00 0.00 0.00 50 1021.0
20260507142735 56 162 0.0 3.0 0.00 0.00 0.00 55 1021.0
20260507142236 57 269 0.0 3.0 0.00 0.00 0.00 52 1021.0
20260507141736 57 172 1.0 3.0 0.00 0.00 0.00 55 1021.0
20260507141236 56 145 0.0 3.0 0.00 0.00 0.00 58 1021.0
20260507140737 56 127 4.0 5.0 0.00 0.00 0.00 57 1021.0
20260507140236 55 291 0.0 2.0 0.00 0.00 0.00 55 1021.0
20260507135736 53 229 0.0 2.0 0.00 0.00 0.00 58 1021.0
20260507135235 53 204 1.0 2.0 0.00 0.00 0.00 61 1021.0
20260507134736 52 247 0.0 2.0 0.00 0.00 0.00 64 1021.0
20260507134235 51 255 1.0 1.0 0.00 0.00 0.00 65 1021.0
20260507133736 51 236 1.0 1.0 0.00 0.00 0.00 68 1021.0
20260507133236 49 258 0.0 3.0 0.00 0.00 0.00 68 1021.0
20260507132735 49 261 0.0 2.0 0.00 0.00 0.00 70 1021.0
20260507132236 48 297 1.0 2.0 0.00 0.00 0.00 75 1021.0
20260507131735 47 257 1.0 3.0 0.00 0.00 0.00 78 1021.0
20260507131236 46 255 0.0 2.0 0.00 0.00 0.00 79 1021.0
20260507130736 46 259 2.0 2.0 0.00 0.00 0.00 82 1021.0
20260507130236 46 269 0.0 2.0 0.00 0.00 0.00 85 1021.0
20260507125736 45 244 0.0 2.0 0.00 0.00 0.00 85 1021.0
20260507125236 45 252 2.0 2.0 0.00 0.00 0.00 89 1021.0
20260507124735 44 251 1.0 2.0 0.00 0.00 0.00 89 1021.0
20260507124236 44 291 0.0 2.0 0.00 0.00 0.00 90 1021.0
20260507123735 43 241 0.0 1.0 0.00 0.00 0.00 90 1021.0
20260507123236 43 266 0.0 2.0 0.00 0.00 0.00 93 1020.0
20260507122735 42 238 0.0 2.0 0.00 0.00 0.00 94 1021.0
20260507122236 42 286 0.0 2.0 0.00 0.00 0.00 95 1021.0
20260507121736 42 309 0.0 2.0 0.00 0.00 0.00 95 1020.0
20260507121236 42 239 0.0 1.0 0.00 0.00 0.00 95 1020.0
20260507120736 41 241 1.0 1.0 0.00 0.00 0.00 96 1020.0
20260507120238 41 283 0.0 1.0 0.00 0.00 0.00 95 1020.0
20260507115738 41 269 0.0 0.0 0.00 0.00 0.00 95 1020.0
20260507115236 41 129 0.0 0.0 0.00 0.00 0.00 95 1020.0
20260507114736 40 129 0.0 0.0 0.00 0.00 0.00 95 1020.0
20260507114235 40 129 0.0 0.0 0.00 0.00 0.00 95 1020.0
20260507113739 40 230 0.0 0.0 0.00 0.00 0.00 95 1020.0
20260507113236 40 230 0.0 0.0 0.00 0.00 0.00 95 1020.0
20260507112736 39 113 0.0 0.0 0.00 0.00 0.00 95 1020.0
20260507112237 39 113 0.0 0.0 0.00 0.00 0.00 95 1020.0
20260507111736 39 113 0.0 0.0 0.00 0.00 0.00 95 1020.0
20260507111235 39 84 0.0 0.0 0.00 0.00 0.00 95 1020.0
20260507110736 39 50 0.0 0.0 0.00 0.00 0.00 95 1020.0
20260507110235 39 50 0.0 0.0 0.00 0.00 0.00 95 1020.0
20260507105736 39 103 0.0 0.0 0.00 0.00 0.00 95 1020.0
20260507105241 39 60 0.0 0.0 0.00 0.00 0.00 94 1020.0
20260507104735 39 60 0.0 0.0 0.00 0.00 0.00 95 1020.0
20260507104235 40 309 0.0 0.0 0.00 0.00 0.00 95 1020.0
20260507103735 40 309 0.0 0.0 0.00 0.00 0.00 95 1020.0
20260507103235 40 44 0.0 0.0 0.00 0.00 0.00 95 1020.0
20260507102736 40 37 0.0 0.0 0.00 0.00 0.00 95 1020.0
20260507102235 40 37 0.0 0.0 0.00 0.00 0.00 95 1019.0
20260507101735 40 135 0.0 0.0 0.00 0.00 0.00 95 1020.0
20260507101236 41 129 0.0 0.0 0.00 0.00 0.00 95 1019.0
20260507100736 41 50 0.0 0.0 0.00 0.00 0.00 95 1020.0
20260507100235 41 130 0.0 0.0 0.00 0.00 0.00 95 1020.0
20260507095738 41 89 0.0 0.0 0.00 0.00 0.00 95 1020.0
20260507095235 41 89 0.0 0.0 0.00 0.00 0.00 95 1019.0
20260507094736 41 55 0.0 0.0 0.00 0.00 0.00 94 1019.0
20260507094235 41 37 0.0 0.0 0.00 0.00 0.00 94 1019.0
20260507093735 41 55 0.0 0.0 0.00 0.00 0.00 94 1019.0
20260507093235 40 119 0.0 0.0 0.00 0.00 0.00 94 1019.0
20260507092735 40 124 0.0 0.0 0.00 0.00 0.00 94 1020.0
20260507092235 40 103 0.0 0.0 0.00 0.00 0.00 94 1019.0
20260507091735 40 309 0.0 0.0 0.00 0.00 0.00 94 1019.0
20260507091237 40 145 0.0 0.0 0.00 0.00 0.00 94 1019.0
20260507090736 40 113 0.0 0.0 0.00 0.00 0.00 94 1020.0
20260507090236 40 141 0.0 0.0 0.00 0.00 0.00 94 1019.0
20260507085735 40 65 0.0 0.0 0.00 0.00 0.00 93 1020.0
20260507085236 40 141 0.0 0.0 0.00 0.00 0.00 93 1020.0
20260507084737 40 142 0.0 0.0 0.00 0.00 0.00 93 1020.0
20260507084235 40 135 0.0 0.0 0.00 0.00 0.00 93 1020.0
20260507083736 40 113 0.0 0.0 0.00 0.00 0.00 93 1020.0
20260507083235 40 129 0.0 0.0 0.00 0.00 0.00 93 1020.0
20260507082735 40 124 0.0 0.0 0.00 0.00 0.00 93 1020.0
20260507082236 40 145 0.0 0.0 0.00 0.00 0.00 93 1020.0
20260507081736 40 124 0.0 1.0 0.00 0.00 0.00 93 1020.0
20260507081235 40 129 0.0 0.0 0.00 0.00 0.00 93 1020.0
20260507080737 40 34 0.0 0.0 0.00 0.00 0.00 92 1020.0
20260507080235 40 34 0.0 0.0 0.00 0.00 0.00 92 1020.0
20260507075735 40 44 0.0 0.0 0.00 0.00 0.00 92 1020.0
20260507075238 41 142 0.0 0.0 0.00 0.00 0.00 92 1020.0
20260507074736 41 135 0.0 0.0 0.00 0.00 0.00 92 1020.0
20260507074236 41 135 0.0 0.0 0.00 0.00 0.00 92 1020.0
20260507073736 41 129 0.0 0.0 0.00 0.00 0.00 92 1020.0
20260507073235 41 129 0.0 0.0 0.00 0.00 0.00 92 1019.0
20260507072735 41 129 0.0 0.0 0.00 0.00 0.00 92 1020.0
20260507072236 41 129 0.0 0.0 0.00 0.00 0.00 91 1020.0
20260507071736 41 129 0.0 0.0 0.00 0.00 0.00 91 1019.0
20260507071235 41 315 0.0 0.0 0.00 0.00 0.00 91 1019.0
20260507070736 41 129 0.0 0.0 0.00 0.00 0.00 90 1019.0
20260507070236 41 44 0.0 0.0 0.00 0.00 0.00 90 1020.0
20260507065736 41 142 0.0 0.0 0.00 0.00 0.00 90 1019.0
20260507065238 42 142 0.0 0.0 0.00 0.00 0.00 90 1020.0
20260507064735 42 55 0.0 0.0 0.00 0.00 0.00 90 1020.0
20260507064235 42 309 0.0 0.0 0.00 0.00 0.00 90 1020.0
20260507063736 42 102 0.0 0.0 0.00 0.00 0.00 89 1020.0
20260507063236 42 102 0.0 0.0 0.00 0.00 0.00 88 1020.0
20260507062736 42 102 0.0 0.0 0.00 0.00 0.00 88 1020.0
20260507062236 42 102 0.0 0.0 0.00 0.00 0.00 87 1020.0
20260507061739 42 322 0.0 0.0 0.00 0.00 0.00 87 1020.0
20260507061236 43 322 0.0 0.0 0.00 0.00 0.00 87 1020.0
20260507060736 43 34 0.0 0.0 0.00 0.00 0.00 87 1020.0
20260507060236 43 322 0.0 0.0 0.00 0.00 0.00 86 1020.0
20260507055736 43 103 0.0 0.0 0.00 0.00 0.00 86 1020.0
20260507055237 44 37 0.0 0.0 0.00 0.00 0.00 86 1020.0
20260507054736 44 304 0.0 0.0 0.00 0.00 0.00 84 1020.0
20260507054235 44 113 0.0 0.0 0.00 0.00 0.00 82 1020.0
20260507053739 44 102 0.0 0.0 0.00 0.00 0.00 81 1020.0
20260507053235 44 102 0.0 0.0 0.00 0.00 0.00 80 1020.0
20260507052735 44 269 0.0 0.0 0.00 0.00 0.00 80 1020.0
20260507052236 45 217 0.0 0.0 0.00 0.00 0.00 79 1020.0
20260507051735 45 217 0.0 0.0 0.00 0.00 0.00 77 1020.0
20260507051236 45 217 0.0 0.0 0.00 0.00 0.00 76 1020.0
20260507050736 45 217 0.0 0.0 0.00 0.00 0.00 76 1019.0
20260507050235 46 297 0.0 0.0 0.00 0.00 0.00 76 1019.0
20260507045736 46 66 0.0 0.0 0.00 0.00 0.00 75 1019.0
20260507045235 46 66 0.0 0.0 0.00 0.00 0.00 74 1019.0
20260507044735 46 157 0.0 0.0 0.00 0.00 0.00 74 1019.0
20260507044236 46 142 0.0 0.0 0.00 0.00 0.00 73 1019.0
20260507043736 47 287 0.0 0.0 0.00 0.00 0.00 72 1019.0
20260507043237 47 304 0.0 0.0 0.00 0.00 0.00 73 1019.0
20260507042736 48 322 0.0 0.0 0.00 0.00 0.00 73 1019.0
20260507042236 48 230 0.0 0.0 0.00 0.00 0.00 71 1019.0
20260507041736 48 32 0.0 0.0 0.00 0.00 0.00 69 1019.0
20260507041238 49 32 0.0 0.0 0.00 0.00 0.00 65 1019.0
20260507040735 49 32 0.0 0.0 0.00 0.00 0.00 62 1019.0
20260507040235 49 37 0.0 0.0 0.00 0.00 0.00 61 1019.0
20260507035739 49 37 0.0 2.0 0.00 0.00 0.00 61 1019.0
20260507035235 50 51 1.0 2.0 0.00 0.00 0.00 60 1019.0
20260507034736 50 37 0.0 1.0 0.00 0.00 0.00 59 1019.0
20260507034236 50 322 0.0 1.0 0.00 0.00 0.00 58 1019.0
20260507033736 50 48 0.0 0.0 0.00 0.00 0.00 58 1019.0
20260507033237 50 25 0.0 0.0 0.00 0.00 0.00 58 1019.0
20260507032736 50 35 0.0 1.0 0.00 0.00 0.00 58 1019.0
20260507032235 50 0 0.0 1.0 0.00 0.00 0.00 58 1019.0
20260507031736 50 44 0.0 1.0 0.00 0.00 0.00 58 1019.0
20260507031235 50 20 1.0 2.0 0.00 0.00 0.00 59 1019.0
20260507030735 50 44 0.0 1.0 0.00 0.00 0.00 59 1019.0
20260507030235 50 24 0.0 1.0 0.00 0.00 0.00 60 1019.0